Location: Newmarket
(52.2500°N, 0.4167°E)
Time: 12:11:46
(UTC+00:00)

Daily predictions for brighter satellites

Satellite Brightness Start Highest point End
(mag) Time Altitude Azimuth Time Altitude Azimuth Time Altitude Azimuth
Cosmos 1680 Rocket 4.5 20:37:40 10° SW 20:42:50 54° WNW 20:48:01 10° NNE
Cosmos 2221 3.0 20:41:22 10° SSW 20:45:39 66° WNW 20:49:58 10° N
Cosmos 2292 Rocket 4.2 20:40:52 10° SSW 20:47:01 81° W 20:51:41 10° N
Cosmos 1766 Rocket 4.5 20:45:58 10° NNW 20:50:17 50° W 20:54:36 10° S
USA 281 3.6 20:44:23 10° SE 20:50:46 55° NE 20:57:12 10° NNW
Ariane Rocket 3.1 20:49:08 10° SSE 20:54:09 67° ENE 20:59:14 10° N
Terra 1.8 21:00:20 10° SSE 21:05:03 90° SW 21:09:49 10° NNW
Cosmos 1452 Rocket 3.9 21:00:25 10° NNW 21:05:37 63° WSW 21:10:47 10° S
Cosmos 1743 Rocket 3.9 21:02:21 10° N 21:06:40 51° ENE 21:10:55 10° SSE
Cosmos 1340 Rocket 3.8 21:03:27 10° SSE 21:06:57 30° E 21:10:29 10° NNE
MOS 1 Rocket 3.7 21:02:26 10° SSE 21:07:35 71° ENE 21:12:57 10° N
Cosmos 921 Rocket 4.1 21:03:20 10° SW 21:07:43 51° WNW 21:12:07 10° NNE
NOSS 2-1 (C) 3.5 21:07:50 10° NW 21:11:25 72° NE 21:16:11 10° SE
USA 234 3.9 21:05:21 10° ENE 21:11:48 61° N 21:18:14 10° W
Lacrosse 5 rocket 2.6 21:08:03 10° W 21:12:10 45° N 21:16:13 10° ENE
Cosmos 468 4.5 21:07:23 10° SSW 21:12:33 67° ESE 21:17:44 10° NNE
CZ-4C R/B 4.2 21:09:34 10° N 21:13:16 50° WNW 21:17:06 10° SW
Cosmos 1408 Rocket 3.7 21:12:00 10° NNW 21:16:28 80° W 21:20:55 10° S
ARIANE 5 R/B 4.3 21:13:17 10° ESE 21:16:34 22° ENE 21:19:51 10° N
ERS-1 Rocket 3.4 21:13:26 10° S 21:18:24 62° WSW 21:23:26 10° NNW
Meteor 2-10 4.2 21:13:20 10° NNW 21:18:55 81° ENE 21:24:13 10° SSE
Cosmos 2279 Rocket 4.4 21:17:24 10° NNW 21:23:32 65° W 21:29:39 10° S
Spot 1 4.4 21:20:14 10° NNE 21:24:09 43° E 21:28:04 10° S
SL-8 R/B 3.9 21:20:03 10° WSW 21:24:39 51° S 21:29:16 10° E
USA 245 3.6 21:22:46 10° SSW 21:24:48 30° W 21:27:01 10° NNW
Cosmos 1626 4.0 21:24:36 11° ESE 21:26:01 13° E 21:27:38 10° NE
Nadezhda 4 Rocket 4.2 21:21:50 10° S 21:27:52 58° E 21:34:01 10° NNE
ATLAS 2AS CENTAUR R/B 4.4 21:23:11 10° W 21:29:50 37° NNW 21:36:14 10° NE
SPOT 5 4.3 21:29:09 10° SSW 21:33:04 29° W 21:36:53 10° NW
Meteor 1-10 Rocket 4.4 21:28:39 10° SSW 21:34:21 79° WNW 21:40:00 10° NNE
SL-16 R/B 4.2 21:29:37 10° WSW 21:34:45 34° NW 21:39:54 10° NNE
Meteor 1-19 Rocket 4.3 21:29:43 10° S 21:35:33 71° E 21:41:14 10° NNE
Cosmos 1603 3.7 21:31:28 10° SSW 21:37:08 83° ESE 21:42:54 10° NNE
Cosmos 2369 Rocket 4.3 21:33:43 10° NW 21:37:37 20° W 21:41:31 10° SW
Cosmos 1833 Rocket 4.5 21:35:26 11° SE 21:37:52 14° E 21:40:47 10° ENE
Okean 1 3.3 21:34:44 10° SSW 21:38:36 81° WNW 21:42:31 10° N
Cosmos 1975 3.3 21:36:28 10° N 21:40:19 47° ENE 21:43:09 17° SE
Cosmos 1151 Rocket 3.2 21:37:10 13° S 21:40:58 54° E 21:45:12 10° NNE
Meteor 1-11 Rocket 4.3 21:35:56 10° NNW 21:41:29 56° W 21:47:05 10° S
Meteor 2-17 Rocket 4.4 21:42:11 10° S 21:48:12 78° E 21:54:17 10° NNE
Cosmos 1302 Rocket 4.2 21:43:12 10° NNW 21:48:21 64° WSW 21:52:42 15° S
Cosmos 1536 4.2 21:45:28 10° NNW 21:49:00 33° W 21:52:33 10° SSW
Cosmos 1992 Rocket 4.1 21:43:48 10° NNW 21:49:04 74° ENE 21:53:10 17° SSE
Cosmos 1726 4.2 21:48:09 10° NW 21:50:22 18° W 21:52:34 10° SW
Cosmos 1500 Rocket 4.3 21:47:08 10° NNW 21:51:17 48° W 21:55:23 10° SSW
USA 306 4.5 21:50:07 10° W 21:52:51 19° SW 21:54:47 13° S
Cosmos 1656 3.7 21:48:14 10° NNW 21:53:44 75° ENE 21:58:06 17° SE
Cosmos 1766 4.3 21:53:37 10° N 21:57:01 32° ENE 21:59:18 17° SE
Cosmos 1805 3.1 21:55:15 10° NNW 21:58:59 85° W 22:01:33 19° S
Lacrosse 4 Rocket 1.3 21:55:29 10° NW 21:59:34 86° NE 22:02:26 19° SE
Cosmos 1733 4.0 21:57:01 10° NNW 22:00:21 41° W 22:03:12 13° SSW
Cosmos 1470 Rocket 4.4 21:57:03 10° N 22:01:16 39° ENE 22:04:11 18° SE
Cosmos 1805 Rocket 4.4 21:57:38 10° NNW 22:01:51 46° W 22:05:48 11° SSW
H-2A R/B 3.5 22:02:15 16° SE 22:05:09 36° ENE 22:09:05 10° N
IRIDIUM 104 4.3 22:00:09 10° N 22:05:25 77° E 22:09:23 18° S
Cosmos 1470 4.4 22:04:13 10° NNE 22:07:08 21° ENE 22:09:19 14° ESE
Cosmos 2026 Rocket 4.1 22:02:10 15° S 22:07:21 62° E 22:13:29 10° NNE
Cosmos 1633 Rocket 3.2 22:04:08 10° N 22:08:33 67° ENE 22:11:28 21° SSE
USA 59 Rocket 0.6 22:06:06 10° NW 22:09:50 47° SW 22:13:06 19° SSE
Cosmos 1666 Rocket 3.5 22:06:19 10° N 22:10:40 83° E 22:13:32 21° SSE
Landsat 5 3.5 22:07:03 10° N 22:10:49 70° WNW 22:14:26 11° SSW
Cosmos 1943 4.4 22:05:55 10° WSW 22:11:21 45° NW 22:16:48 10° NNE
NOSS 2-1 (E) 4.1 22:08:12 10° WNW 22:11:55 46° SW 22:15:08 20° SSE
NOSS 3-3 (A) 4.3 22:08:04 14° S 22:12:21 39° ESE 22:18:09 10° NE
Cosmos 1340 3.8 22:09:51 10° NNW 22:12:55 32° W 22:15:25 14° SSW
IRIDIUM 114 4.3 22:09:18 10° N 22:14:33 89° ENE 22:18:30 18° S
Sich 1 4.5 22:13:50 10° NNW 22:17:44 32° W 22:21:37 10° SSW
CZ-2C R/B 3.9 22:16:31 10° NNE 22:20:56 52° E 22:23:38 22° S
Cosmos 44 Rocket 3.7 22:16:22 10° NW 22:21:20 62° NE 22:25:15 15° ESE
Cosmos 220 Rocket 3.9 22:18:09 15° SSW 22:21:45 74° ESE 22:26:04 10° NNE
IRIDIUM 103 4.4 22:18:28 10° N 22:23:43 78° W 22:27:38 18° S
Cosmos 1818 3.8 22:21:17 13° SSW 22:26:01 50° ESE 22:31:18 10° NE
NOSS 3-4 (A) 4.1 22:19:51 10° NW 22:26:22 64° NE 22:33:57 10° ESE
Cosmos 1933 Rocket 4.5 22:22:20 10° N 22:26:24 37° ENE 22:29:00 19° SE
NOSS 3-4 (C) 4.1 22:19:57 10° NW 22:26:28 64° NE 22:34:03 10° ESE
NOSS 8 (A) 4.2 22:23:46 10° SW 22:27:32 88° SSE 22:30:36 10° NE
ALOS 2 3.7 22:26:21 17° ESE 22:29:14 35° ENE 22:33:14 10° N
Cosmos 1697 Rocket 2.9 22:25:39 10° NNW 22:31:17 65° NE 22:35:27 18° SE
USA 281 4.0 22:30:22 15° S 22:35:28 41° WSW 22:41:41 10° NW
Cosmos 1553 Rocket 4.0 22:29:41 10° N 22:35:47 72° ENE 22:39:57 21° SSE
GEOS 3 Rocket 3.5 22:31:22 10° NE 22:36:37 83° SE 22:41:44 10° SW
Meteor 2-4 Rocket 3.9 22:33:19 14° SSW 22:38:28 82° WNW 22:44:27 10° NNE
Cosmos 1674 3.4 22:37:26 26° SE 22:38:36 34° E 22:41:49 10° NNE
Cosmos 1980 Rocket 3.1 22:34:03 10° NNW 22:39:31 43° NE 22:44:37 11° ESE
NOSS 3-3 (C) 3.9 22:38:07 14° SSW 22:42:52 56° SE 22:49:12 10° NE
Terra 4.2 22:40:53 10° WSW 22:43:21 14° W 22:45:50 10° NW
MINOTAUR 4 R/B 3.4 22:40:30 10° NNE 22:43:29 83° ESE 22:44:36 35° S
Cosmos 1066 Rocket 4.3 22:41:55 21° S 22:45:57 71° E 22:51:49 10° NNE
Lacrosse 5 rocket 2.2 22:46:56 10° WNW 22:51:05 51° NNE 22:55:05 10° E
ARIANE 5 R/B 2.9 22:50:12 24° S 22:52:39 56° W 22:56:54 10° NNW
Cosmos 1908 3.8 22:49:23 10° N 22:52:48 40° ENE 22:54:20 26° SE
USA 234 3.7 22:48:00 10° E 22:54:30 66° NNE 23:00:59 10° WNW
Cosmos 1269 Rocket 4.0 22:54:32 17° SSW 22:58:38 88° ESE 23:03:57 10° NNE
Cosmos 1092 Rocket 4.4 22:53:12 14° SSW 22:58:42 64° WNW 23:05:02 10° N
Cosmos 1626 2.6 22:57:25 22° SW 22:59:10 45° WNW 23:02:19 10° N
PSLV R/B 4.0 23:01:08 10° NNE 23:05:13 76° WNW 23:07:35 24° SSW
SL-8 R/B 3.8 23:02:08 10° W 23:06:44 50° S 23:10:29 15° ESE
BREEZE-M DEB (TANK) 2.7 23:08:20 10° W 23:14:08 10° ESE 23:14:13 10° ESE
Cosmos 1707 2.8 23:09:21 34° SSE 23:10:37 55° E 23:14:12 10° NNE
Cosmos 1441 Rocket 3.6 23:09:33 10° N 23:13:03 48° ENE 23:14:30 29° SE
SL-16 R/B 4.1 23:08:46 10° NNW 23:13:33 27° NE 23:18:19 10° E
Cosmos 2266 Rocket 4.2 23:12:28 24° SSE 23:16:12 60° E 23:22:22 10° NNE
Spot 4 3.9 23:13:59 27° S 23:16:31 69° WSW 23:21:18 10° NNW
Cosmos 1842 3.0 23:15:46 34° S 23:17:16 87° ESE 23:20:59 10° NNE
Cosmos 1833 Rocket 2.6 23:17:04 21° SSW 23:20:49 75° ESE 23:26:28 10° NNE
ATLAS 2AS CENTAUR R/B 4.4 23:16:10 10° NW 23:22:31 34° N 23:28:38 10° ENE
Cosmos 2082 Rocket 3.3 23:23:06 21° SE 23:25:31 29° ESE 23:30:22 10° NE
Cosmos 1300 3.8 23:25:59 10° N 23:29:15 32° ENE 23:30:52 22° ESE
Meteor 1-22 Rocket 4.2 23:25:23 10° N 23:30:43 74° ENE 23:33:54 25° SSE
Cosmos 1515 Rocket 3.9 23:28:42 24° SSW 23:31:10 59° WNW 23:35:27 10° N
KORONAS-FOTON 3.8 23:30:14 33° SSW 23:31:46 71° W 23:35:29 10° N
Cosmos 2228 Rocket 4.2 23:31:44 23° SE 23:33:44 33° E 23:37:46 10° NNE
Meteor 1-15 Rocket 4.2 23:29:17 10° NNW 23:34:58 80° ENE 23:38:16 26° SSE
H-2A R/B 2.8 23:32:21 10° NNE 23:36:34 41° E 23:38:23 27° SSE
Lacrosse 4 Rocket 3.5 23:35:07 10° WNW 23:37:16 14° WSW 23:38:21 13° SW
Cosmos 1733 Rocket 3.8 23:33:24 10° N 23:37:34 43° ENE 23:39:58 22° SE
H-2A R/B 3.8 23:38:15 21° SW 23:40:08 30° W 23:43:56 10° NNW
Cosmos 1869 Rocket 3.5 23:36:09 10° NNW 23:40:31 74° W 23:42:30 32° S
Cosmos 1470 3.6 23:39:12 10° NNW 23:42:39 37° W 23:43:59 27° SW
GP-B 3.1 23:50:20 10° N 23:54:46 75° E 23:56:49 31° S
Cosmos 1400 Rocket 3.2 23:54:09 32° SSE 23:55:38 50° E 23:59:30 10° NNE
